This is the latest recevied weather packets stored in our database for station/object KK7ISX. If no packets are shown the sender has not sent any weather packets the latest 10 day(s).
| Time | Temp. | Humidity | Pressure | Rain* | Wind** | Luminosity | Snow |
|---|---|---|---|---|---|---|---|
| 1777923457 | 23.33° C | 38% | 1007.2 hPa | 0 mm | - | 757 W/m² | - |
| 1777923155 | 22.78° C | 36% | 1007.3 hPa | 0 mm | - | 759 W/m² | - |
| 1777922853 | 23.33° C | 37% | 1007.3 hPa | 0 mm | - | 761 W/m² | - |
| 1777922551 | 22.78° C | 36% | 1007.3 hPa | 0 mm | - | 763 W/m² | - |
| 1777922249 | 22.78° C | 37% | 1007.6 hPa | 0 mm | - | 761 W/m² | - |
| 1777921946 | 22.78° C | 38% | 1007.7 hPa | 0 mm | - | 762 W/m² | - |
| 1777921641 | 22.22° C | 37% | 1007.6 hPa | 0 mm | - | 761 W/m² | - |
| 1777921339 | 22.22° C | 37% | 1007.8 hPa | 0 mm | - | 761 W/m² | - |
| 1777921035 | 22.78° C | 38% | 1007.7 hPa | 0 mm | - | 762 W/m² | - |
| 1777920731 | 22.22° C | 39% | 1007.8 hPa | 0 mm | - | 763 W/m² | - |
| 1777920427 | 22.22° C | 40% | 1007.9 hPa | 0 mm | - | 764 W/m² | - |
| 1777920123 | 21.67° C | 39% | 1007.9 hPa | 0 mm | - | 761 W/m² | - |
| 1777919820 | 21.67° C | 38% | 1007.9 hPa | 0 mm | - | 759 W/m² | - |
| 1777919516 | 22.22° C | 39% | 1008.1 hPa | 0 mm | - | 759 W/m² | - |
| 1777919214 | 21.67° C | 39% | 1008.3 hPa | 0 mm | - | 756 W/m² | - |
| 1777918911 | 21.67° C | 39% | 1008.2 hPa | 0 mm | - | 757 W/m² | - |
| 1777918609 | 21.67° C | 38% | 1008.5 hPa | 0 mm | - | 752 W/m² | - |
| 1777918306 | 21.67° C | 39% | 1008.3 hPa | 0 mm | - | 748 W/m² | - |
| 1777918005 | 21.11° C | 39% | 1008.4 hPa | 0 mm | - | 743 W/m² | - |
| 1777917703 | 20.56° C | 39% | 1008.3 hPa | 0 mm | - | 737 W/m² | - |
| 1777917400 | 20.56° C | 39% | 1008.3 hPa | 0 mm | - | 730 W/m² | - |
| 1777917097 | 21.11° C | 40% | 1008.4 hPa | 0 mm | - | 722 W/m² | - |
| 1777916796 | 20.56° C | 40% | 1008.5 hPa | 0 mm | - | 713 W/m² | - |
| 1777916491 | 20.56° C | 42% | 1008.5 hPa | 0 mm | - | 704 W/m² | - |
| 1777916190 | 20° C | 43% | 1008.5 hPa | 0 mm | - | 692 W/m² | - |
* Rain latest hour (hover to see other rain measurements)
** Current wind speed in m/s (hover to see current wind gust speed)